Starlink 1554

operational
NORAD ID: 46055 Int'l Des: 2020-055 Owner: SPXS Country: US Constellation: starlink
LEOCIRCULAR

关于 Starlink 1554

正在加载描述...

实时位置

正在加载3D地球...

即将过境

高度历史

Altitude vs Time

uPlot chart will show altitude changes over time

两行轨道根数

1 46055U 20055AE 26063.00001157 .00422630 00000-0 13888-1 0 9999
2 46055 53.1638 140.4632 0001524 79.4853 267.9150 15.29248695 5844
Epoch: Mar 4, 2026 • Age: 4 hours

当前状态

高度 496.8 km
速度 7.62 km/s
星下点 -52.29°S, 167.26°E
发射日期 Aug 7, 2020
运行时间 5.5 years
类型 internet

技术详情

分类 Payload
质量 260.00 kg
干质量 248.00 kg
总质量 260.00 kg
长度 0.20 m
直径 2.80 m
跨度 9.00 m
形状 Box + pan
制造商 SPXS
平台类型 Starlink
阶段状态 In Orbit
所有者/国家 SPXS/US

大型星座

Loading constellations...